FW0248 Weather Reports


time (UTC)temp
C
wind
direction
speed
KPH
gust
KPH
rain 1hr
cm
rain 24hr
cm
rain mn
cm
humidity
%
barometer
mb
20220813145205 27 176 0.0 3.2 0.00 0.81 0.03 53 1021.2
20220813145045 27 176 0.0 4.8 0.00 0.81 0.03 57 1021.4
20220813143932 27 176 0.0 4.8 0.00 0.81 0.03 57 1021.4
20220813143159 26 176 0.0 8.0 0.00 0.81 0.03 60 1021.3
20220813142927 26 176 0.0 8.0 0.00 0.81 0.03 59 1021.3
20220813142429 25 176 0.0 6.4 0.00 0.81 0.03 63 1021.4
20220813142037 25 176 0.0 3.2 0.00 0.81 0.03 67 1021.3
20220813141929 25 176 0.0 6.4 0.00 0.81 0.03 66 1021.4
20220813141301 25 176 0.0 8.0 0.00 0.81 0.03 69 1021.2
20220813140151 25 176 0.0 8.0 0.00 0.81 0.03 66 1021.2
20220813135650 24 176 0.0 3.2 0.00 0.81 0.03 70 1021.0
20220813135151 24 176 0.0 9.7 0.00 0.81 0.03 71 1021.2
20220813134650 23 176 0.0 9.7 0.00 0.81 0.03 76 1021.0
20220813134154 23 174 0.0 3.2 0.00 0.81 0.03 78 1020.9
20220813134149 23 176 0.0 6.4 0.00 0.81 0.03 79 1020.9
20220813133149 22 174 0.0 3.2 0.00 0.81 0.03 83 1020.9
20220813132649 22 174 0.0 3.2 0.00 0.81 0.03 83 1021.0
20220813132420 21 174 0.0 3.2 0.00 0.81 0.03 87 1020.9
20220813131649 21 174 0.0 3.2 0.00 0.81 0.03 90 1020.7
20220813131419 20 174 0.0 4.8 0.00 0.81 0.03 92 1020.6
20220813130645 20 174 0.0 4.8 0.00 0.81 0.03 94 1020.6
20220813130146 20 174 0.0 1.6 0.00 0.81 0.03 95 1020.5
20220813125646 20 174 0.0 0.0 0.00 0.81 0.03 97 1020.4
20220813125147 19 174 0.0 1.6 0.00 0.81 0.03 97 1020.3
20220813124646 19 174 0.0 1.6 0.00 0.81 0.03 98 1020.3
20220813124146 19 174 0.0 1.6 0.00 0.81 0.03 98 1020.4
20220813123650 18 174 0.0 1.6 0.00 0.81 0.03 99 1020.3
20220813123646 18 174 0.0 0.0 0.00 0.81 0.03 99 1020.3
20220813122646 18 174 0.0 1.6 0.00 0.81 0.03 99 1020.3
20220813122418 18 174 0.0 1.6 0.00 0.81 0.03 99 1020.2
20220813121645 18 174 0.0 1.6 0.00 0.81 0.03 99 1020.3
20220813121146 18 174 0.0 1.6 0.00 0.81 0.03 99 1020.2
20220813120644 18 174 0.0 1.6 0.00 0.81 0.03 99 1020.3
20220813120147 18 174 0.0 1.6 0.00 0.81 0.03 99 1020.2
20220813115645 -17 0.0 0.0 0.00 0.81 0.03 1020.2
20220813115419 -17 0.0 0.0 0.00 0.81 0.03 1020.1
20220813114916 -17 0.0 0.0 0.00 0.81 0.03 1020.0
20220813114050 -17 0.0 0.0 0.00 0.81 0.03 1020.0
20220813113556 -17 0.0 0.0 0.00 0.81 0.03 1019.8
20220813113548 -17 0.0 0.0 0.00 0.81 0.03 1020.0
20220813113047 -17 0.0 0.0 0.00 0.81 0.03 1019.9
20220813112547 -17 0.0 0.0 0.00 0.81 0.03 1019.9
20220813111717 -17 0.0 0.0 0.00 0.81 0.03 1019.7
20220813111218 -17 0.0 0.0 0.00 0.81 0.03 1019.6
20220813110441 -17 0.0 0.0 0.00 0.81 0.03 1019.5
20220813105851 -17 0.0 0.0 0.00 0.81 0.03 1019.4
20220813105346 -17 0.0 0.0 0.00 0.81 0.03 1019.4
20220813105024 -17 0.0 0.0 0.00 0.81 0.03 1019.3
20220813104251 -17 0.0 0.0 0.00 0.81 0.03 1019.3
20220813104247 -17 0.0 0.0 0.00 0.81 0.03 1019.4
20220813103517 -17 174 0.0 0.0 0.00 0.81 0.03 1019.1
20220813103022 -17 174 0.0 0.0 0.00 0.81 0.03 1019.1
20220813102459 18 174 0.0 0.0 0.00 0.81 0.03 99 1019.1
20220813101725 18 174 0.0 0.0 0.00 0.81 0.03 99 1019.0
20220813101231 18 174 0.0 1.6 0.00 0.81 0.03 99 1018.8
20220813100729 18 174 0.0 1.6 0.00 0.81 0.03 99 1018.9
20220813100725 18 174 0.0 1.6 0.00 0.81 0.03 99 1018.9
20220813095725 18 174 0.0 1.6 0.00 0.81 0.03 99 1019.0
20220813095457 18 174 0.0 0.0 0.00 0.81 0.03 99 1018.9
20220813095335 18 174 0.0 0.0 0.00 0.81 0.03 99 1018.9
20220813094225 18 174 0.0 0.0 0.00 0.81 0.03 99 1018.8
20220813093836 18 174 0.0 0.0 0.00 0.81 0.03 99 1018.8
20220813093726 18 174 0.0 0.0 0.00 0.81 0.03 99 1018.8
20220813093456 18 174 0.0 0.0 0.00 0.81 0.03 99 1018.7
20220813092224 18 174 0.0 0.0 0.00 0.81 0.03 99 1018.9
20220813091727 18 174 0.0 3.2 0.00 0.81 0.03 99 1018.9
20220813091723 18 174 0.0 3.2 0.00 0.81 0.03 99 1018.9
20220813091601 18 174 0.0 3.2 0.00 0.81 0.03 99 1018.8
20220813090223 18 174 0.0 1.6 0.00 0.81 0.03 99 1018.9
20220813085724 18 174 0.0 0.0 0.00 0.81 0.03 99 1018.8
20220813085457 18 174 0.0 0.0 0.00 0.81 0.03 99 1018.8
20220813084727 18 174 0.0 0.0 0.00 0.81 0.03 99 1018.6
20220813084723 18 174 0.0 0.0 0.00 0.81 0.03 99 1018.7
20220813083951 18 174 0.0 0.0 0.00 0.81 0.03 99 1018.8
20220813083221 18 174 0.0 0.0 0.00 0.81 0.03 99 1018.8
20220813082952 18 174 0.0 0.0 0.00 0.81 0.03 99 1018.8
20220813082453 18 174 0.0 0.0 0.00 0.81 0.03 99 1018.9
20220813081954 18 174 0.0 0.0 0.00 0.81 0.03 99 1018.8
20220813081455 18 174 0.0 0.0 0.00 0.81 0.03 99 1019.0
20220813080721 18 174 0.0 0.0 0.00 0.81 0.03 99 1019.0
20220813080221 18 174 0.0 0.0 0.00 0.81 0.03 99 1018.9
20220813075721 18 174 0.0 0.0 0.00 0.81 0.03 99 1018.9
20220813075220 18 174 0.0 0.0 0.00 0.81 0.03 99 1018.9
20220813074719 18 174 0.0 0.0 0.00 0.81 0.03 99 1018.9
20220813074450 18 174 0.0 0.0 0.00 0.84 0.03 99 1018.9
20220813073719 19 174 0.0 0.0 0.00 0.84 0.03 99 1018.9
20220813073452 18 174 0.0 0.0 0.00 0.84 0.03 99 1019.0
20220813072723 19 174 0.0 0.0 0.00 0.84 0.03 99 1019.0
20220813072719 19 174 0.0 0.0 0.00 0.84 0.03 99 1018.9
20220813072326 19 174 0.0 0.0 0.00 0.84 0.03 99 1019.1
20220813071719 19 174 0.0 0.0 0.00 0.84 0.03 99 1019.1
20220813071326 19 174 0.0 0.0 0.00 0.84 0.03 99 1019.0
20220813070719 19 174 0.0 0.0 0.00 0.84 0.03 99 1019.1
20220813065952 19 174 0.0 0.0 0.00 0.84 0.03 99 1019.0
20220813065448 19 174 0.0 0.0 0.00 0.84 0.03 99 1019.1
20220813065325 19 174 0.0 0.0 0.00 0.84 0.03 99 1019.1
20220813064448 19 174 0.0 0.0 0.00 0.84 0.03 99 1019.1
20220813063948 19 174 0.0 0.0 0.00 0.84 0.03 99 1019.0
20220813063221 19 174 0.0 0.0 0.00 0.84 0.03 99 1019.1
20220813063217 19 174 0.0 0.0 0.00 0.84 0.03 99 1019.0
20220813062823 19 174 0.0 0.0 0.00 0.84 0.03 99 1019.1
20220813062322 19 174 0.0 0.0 0.00 0.84 0.03 99 1019.0
20220813061213 19 174 0.0 0.0 0.00 0.84 0.03 99 1018.9
20220813060942 19 174 0.0 0.0 0.00 0.84 0.03 99 1018.9
20220813060442 19 174 0.0 0.0 0.00 0.84 0.03 99 1019.1
20220813055711 19 174 0.0 0.0 0.00 0.84 0.03 99 1019.1
20220813055449 19 174 0.0 0.0 0.03 0.84 0.03 99 1019.1
20220813055211 19 174 0.0 0.0 0.00 0.84 0.03 99 1019.1
20220813054210 19 174 0.0 0.0 0.03 0.84 0.03 99 1019.0
20220813053939 19 174 0.0 0.0 0.03 0.84 0.03 99 1018.9
20220813053439 19 174 0.0 0.0 0.03 0.84 0.03 99 1018.9
20220813052938 19 174 0.0 1.6 0.03 0.84 0.03 99 1018.9
20220813052211 19 174 0.0 0.0 0.03 0.84 0.03 99 1019.1
20220813052206 19 174 0.0 1.6 0.03 0.84 0.03 99 1019.0
20220813051813 19 174 0.0 0.0 0.03 0.84 0.03 99 1019.1
20220813051316 19 174 0.0 0.0 0.03 0.84 0.03 99 1019.1
20220813050435 19 174 0.0 0.0 0.03 0.84 0.03 99 1019.1
20220813045705 19 174 0.0 0.0 0.03 0.84 0.03 99 1019.1
20220813045203 19 174 0.0 0.0 0.03 0.84 0.03 98 1019.1
20220813044702 20 174 0.0 0.0 0.00 0.81 0.03 98 1019.2
20220813044202 20 174 0.0 0.0 0.00 0.81 0.00 99 1019.0
20220813043700 20 174 0.0 0.0 0.00 0.81 0.00 98 1019.0
20220813043201 20 174 0.0 0.0 0.00 0.81 0.00 99 1019.0
20220813042934 20 174 0.0 0.0 0.00 0.81 0.00 99 1018.9
20220813042200 20 174 0.0 0.0 0.00 0.81 0.00 99 1018.9
20220813041705 20 174 0.0 0.0 0.00 0.81 0.00 98 1018.7
20220813041701 20 174 0.0 0.0 0.00 0.81 0.00 98 1018.8
20220813040705 20 174 0.0 0.0 0.00 0.81 0.00 98 1018.7
20220813040701 20 174 0.0 0.0 0.00 0.81 0.00 98 1018.6
20220813035700 20 174 0.0 0.0 0.00 0.81 0.81 98 1018.7
20220813035201 20 174 0.0 0.0 0.00 0.81 0.81 98 1018.7
20220813034706 20 174 0.0 0.0 0.00 0.81 0.81 98 1018.6
20220813034701 20 174 0.0 0.0 0.00 0.81 0.81 98 1018.7
20220813033701 20 174 0.0 1.6 0.00 0.81 0.81 98 1018.7
20220813033201 20 174 0.0 1.6 0.00 0.81 0.81 98 1018.7
20220813032700 20 174 0.0 0.0 0.00 0.81 0.81 98 1018.6
20220813032432 20 174 0.0 0.0 0.00 0.81 0.81 98 1018.7
20220813031932 20 174 0.0 0.0 0.00 0.81 0.81 98 1018.6
20220813031203 20 174 0.0 0.0 0.00 0.81 0.81 98 1018.6
20220813030932 20 174 0.0 0.0 0.00 0.81 0.81 98 1018.7
20220813030431 20 174 0.0 0.0 0.00 0.81 0.81 98 1018.6
20220813025811 20 174 0.0 0.0 0.00 0.81 0.81 98 1018.6
20220813025701 20 174 0.0 0.0 0.00 0.81 0.81 98 1018.6
20220813025431 20 174 0.0 0.0 0.00 0.81 0.81 98 1018.6
20220813024428 20 174 0.0 0.0 0.00 0.81 0.81 98 1018.7
20220813023925 20 174 0.0 0.0 0.00 0.81 0.81 98 1018.6
20220813023152 20 174 0.0 0.0 0.00 0.81 0.81 98 1018.4
20220813022923 20 174 0.0 0.0 0.00 0.81 0.81 98 1018.4
20220813022420 21 174 0.0 0.0 0.00 0.81 0.81 98 1018.4
20220813022259 21 174 0.0 0.0 0.00 0.81 0.81 99 1018.3
20220813021919 21 174 0.0 0.0 0.00 0.81 0.81 98 1018.2
20220813021146 21 174 0.0 0.0 0.00 0.81 0.81 98 1018.2
20220813020147 21 174 0.0 0.0 0.00 0.81 0.81 99 1018.3
20220813015647 21 174 0.0 0.0 0.00 0.81 0.81 98 1018.2
20220813015146 21 174 0.0 0.0 0.00 0.81 0.81 98 1018.3
20220813014647 21 174 0.0 0.0 0.00 0.81 0.81 98 1018.3
20220813014144 21 174 0.0 0.0 0.00 0.81 0.81 98 1018.2
20220813013644 21 174 0.0 0.0 0.00 0.81 0.81 98 1018.2
20220813013144 21 174 0.0 0.0 0.00 0.81 0.81 99 1018.1
20220813012646 21 174 0.0 0.0 0.00 0.81 0.81 99 1018.0
20220813012415 21 174 0.0 0.0 0.00 0.81 0.81 98 1017.8
20220813011644 21 174 0.0 0.0 0.00 0.81 0.81 98 1017.8
20220813011142 21 174 0.0 0.0 0.00 0.81 0.81 98 1017.5
20220813010914 21 174 0.0 0.0 0.00 0.81 0.81 98 1017.5
20220813010413 21 174 0.0 0.0 0.00 0.81 0.81 98 1017.4
20220813005642 21 174 0.0 0.0 0.00 0.81 0.81 98 1017.3
20220813005413 21 174 0.0 0.0 0.00 0.81 0.81 98 1017.3
20220813005253 21 174 0.0 0.0 0.00 0.81 0.81 98 1017.3
20220813004143 21 174 0.0 0.0 0.00 0.81 0.81 98 1017.4
20220813003646 21 174 0.0 0.0 0.00 0.81 0.81 98 1017.5
20220813003642 21 174 0.0 0.0 0.00 0.81 0.81 98 1017.6
20220813003255 22 174 0.0 0.0 0.00 0.81 0.81 98 1017.4
20220813002145 22 174 0.0 0.0 0.00 0.81 0.81 98 1017.3
20220813002140 22 174 0.0 0.0 0.00 0.81 0.81 98 1017.3
20220813001412 22 174 0.0 0.0 0.00 0.81 0.81 98 1017.2
20220813000640 22 174 0.0 0.0 0.00 0.81 0.81 98 1017.0
20220813000140 22 174 0.0 0.0 0.03 0.81 0.81 97 1017.0
20220813000021 22 174 0.0 0.0 0.18 0.81 0.81 97 1016.8
20220812235911 22 174 0.0 0.0 0.08 0.81 0.81 97 1017.0
20220812234640 22 174 0.0 0.0 0.30 0.81 0.81 98 1016.7
20220812234140 22 174 0.0 0.0 0.46 0.81 0.81 98 1016.6
20220812233638 22 174 0.0 0.0 0.61 0.81 0.81 98 1016.5
20220812233139 22 174 0.0 0.0 0.79 0.81 0.81 98 1016.5
20220812232910 22 174 0.0 0.0 0.79 0.81 0.81 98 1016.6
20220812232409 22 174 0.0 3.2 0.79 0.81 0.81 97 1016.6
20220812231643 21 174 0.0 3.2 0.79 0.81 0.81 96 1016.7
20220812231638 21 174 1.6 3.2 0.79 0.81 0.81 96 1016.5
20220812231245 21 174 0.0 1.6 0.79 0.81 0.81 96 1016.9
20220812230137 21 174 3.2 14.5 0.76 0.79 0.79 95 1016.9
20220812225636 21 174 8.0 22.5 0.71 0.74 0.76 94 1017.1
20220812225138 21 174 14.5 35.4 0.61 0.64 0.66 94 1017.0
20220812224636 21 175 16.1 38.6 0.48 0.51 0.51 92 1017.2
20220812224407 22 174 12.9 38.6 0.33 0.36 0.36 88 1016.8
20220812223636 24 176 9.7 37.0 0.18 0.20 0.23 81 1016.7
20220812223137 28 184 4.8 37.0 0.00 0.03 0.03 69 1016.2
20220812222908 30 177 1.6 8.0 0.00 0.03 0.03 61 1015.7
20220812222407 30 177 1.6 8.0 0.00 0.03 0.03 60 1015.3
20220812221636 31 177 1.6 6.4 0.00 0.03 0.03 59 1015.3
20220812221145 31 177 1.6 4.8 0.00 0.03 0.03 57 1015.3
20220812221141 31 177 1.6 6.4 0.00 0.03 0.03 57 1015.3
20220812220133 31 177 1.6 4.8 0.00 0.03 0.03 56 1015.3
20220812215632 31 177 1.6 4.8 0.00 0.03 0.03 55 1015.3
20220812215403 31 177 1.6 6.4 0.00 0.03 0.03 55 1015.2
20220812215242 31 177 1.6 6.4 0.00 0.03 0.03 59 1015.2
20220812214136 30 177 0.0 4.8 0.00 0.03 0.03 59 1015.3
20220812214132 30 177 0.0 4.8 0.00 0.03 0.03 60 1015.2
20220812214027 30 177 0.0 4.8 0.00 0.03 0.03 58 1015.1
20220812212630 31 177 0.0 3.2 0.00 0.03 0.03 55 1015.2
20220812212401 31 177 0.0 3.2 0.00 0.03 0.03 56 1015.2
20220812211632 31 177 0.0 6.4 0.00 0.03 0.03 55 1015.1
20220812211628 31 177 0.0 6.4 0.00 0.03 0.03 56 1015.2
20220812210858 32 176 0.0 6.4 0.00 0.03 0.03 53 1015.0
20220812210239 33 176 1.6 4.8 0.00 0.03 0.03 52 1015.2
20220812210132 32 176 0.0 4.8 0.00 0.03 0.03 52 1015.2
20220812210128 32 176 0.0 6.4 0.00 0.03 0.03 53 1015.1
20220812204627 33 176 1.6 4.8 0.00 0.03 0.03 52 1015.1
20220812204359 33 176 1.6 8.0 0.00 0.03 0.03 52 1015.2
20220812203625 32 176 1.6 8.0 0.00 0.03 0.03 52 1015.1
20220812203130 32 176 1.6 4.8 0.00 0.03 0.03 53 1015.1
20220812203126 32 176 1.6 8.0 0.00 0.03 0.03 53 1015.1
20220812202736 32 176 1.6 4.8 0.00 0.03 0.03 52 1015.1
20220812202355 32 176 1.6 4.8 0.00 0.03 0.03 53 1015.2
20220812201357 32 176 1.6 4.8 0.00 0.03 0.03 55 1015.2
20220812200853 32 176 0.0 1.6 0.00 0.03 0.03 53 1015.3
20220812200122 32 176 0.0 3.2 0.00 0.03 0.03 53 1015.2
20220812195621 32 176 0.0 4.8 0.00 0.03 0.03 55 1015.3
20220812195122 32 176 0.0 4.8 0.00 0.03 0.03 53 1015.4
20220812194626 32 176 1.6 8.0 0.00 0.03 0.03 54 1015.4
20220812194622 32 176 1.6 8.0 0.00 0.03 0.03 55 1015.3
20220812193620 32 176 1.6 6.4 0.00 0.03 0.03 53 1015.3
20220812193349 32 176 1.6 6.4 0.00 0.03 0.03 55 1015.4
20220812192849 32 176 0.0 6.4 0.00 0.03 0.03 56 1015.6
20220812192119 32 176 1.6 8.0 0.00 0.03 0.03 54 1015.6
20220812191848 32 176 1.6 8.0 0.00 0.03 0.03 53 1015.4
20220812191348 32 179 0.0 4.8 0.00 0.03 0.03 55 1015.6
20220812190617 31 180 0.0 6.4 0.00 0.03 0.03 57 1015.6
20220812190459 31 180 4.8 16.1 0.00 0.03 0.03 56 1015.6
20220812190350 31 179 3.2 12.9 0.00 0.03 0.03 57 1015.6
20220812185349 31 180 6.4 17.7 0.00 0.03 0.03 56 1015.6
20220812184849 31 179 3.2 17.7 0.00 0.03 0.03 54 1015.6
20220812184121 32 186 1.6 8.0 0.00 0.03 0.03 53 1015.7
20220812184117 32 186 0.0 6.4 0.00 0.03 0.03 54 1015.6
20220812183118 32 186 1.6 8.0 0.00 0.03 0.03 54 1015.8
20220812182851 32 186 1.6 9.7 0.00 0.03 0.03 56 1016.0
20220812182727 30 186 3.2 9.7 0.00 0.03 0.03 57 1016.0
20220812182117 31 186 1.6 9.7 0.00 0.03 0.03 57 1015.9
20220812181823 31 186 3.2 9.7 0.00 0.03 0.03 56 1016.1
20220812181431 30 186 4.8 12.9 0.00 0.03 0.03 58 1016.0
20220812181314 31 186 3.2 16.1 0.00 0.03 0.03 56 1016.2
20220812181310 31 186 3.2 12.9 0.00 0.03 0.03 56 1016.1
20220812175345 31 186 3.2 16.1 0.00 0.03 0.03 57 1016.2
20220812174847 32 188 1.6 8.0 0.00 0.03 0.03 53 1016.3
20220812174345 32 188 1.6 8.0 0.00 0.03 0.03 54 1016.3
20220812173612 32 188 1.6 8.0 0.00 0.03 0.03 53 1016.4
20220812173111 31 188 1.6 11.3 0.00 0.03 0.03 54 1016.5
20220812172842 32 188 1.6 11.3 0.00 0.03 0.03 54 1016.4
20220812172112 32 188 1.6 4.8 0.00 0.03 0.03 54 1016.5
20220812171842 31 188 3.2 16.1 0.00 0.03 0.03 57 1016.6
20220812171116 31 192 1.6 11.3 0.00 0.03 0.03 56 1016.6
20220812171111 31 188 3.2 16.1 0.00 0.03 0.03 56 1016.7
20220812170950 31 192 1.6 8.0 0.00 0.03 0.03 57 1016.7
20220812165611 31 193 1.6 9.7 0.00 0.03 0.03 60 1016.6
20220812165113 30 192 4.8 12.9 0.00 0.03 0.03 60 1016.7
20220812164609 30 193 6.4 17.7 0.00 0.03 0.03 60 1016.8
20220812164222 30 195 3.2 16.1 0.00 0.03 0.03 61 1017.0
20220812164110 30 193 3.2 17.7 0.00 0.03 0.03 58 1016.8
20220812163840 31 195 1.6 8.0 0.00 0.03 0.03 62 1016.8
20220812163342 30 195 4.8 16.1 0.00 0.03 0.03 61 1016.8
20220812162107 30 196 1.6 9.7 0.00 0.03 0.03 63 1017.0
20220812161843 30 196 1.6 14.5 0.00 0.03 0.03 63 1017.0
20220812161606 30 195 1.6 12.9 0.00 0.03 0.03 61 1017.0
20220812160835 30 196 1.6 14.5 0.00 0.03 0.03 63 1017.0
20220812160107 29 199 3.2 12.9 0.00 0.03 0.03 66 1016.8
20220812160103 30 199 1.6 9.7 0.00 0.03 0.03 62 1017.0
20220812155944 29 199 1.6 12.9 0.00 0.03 0.03 64 1017.0
20220812154832 29 199 1.6 8.0 0.00 0.03 0.03 68 1016.9
20220812154332 29 199 0.0 8.0 0.00 0.03 0.03 65 1017.0
20220812154211 29 199 0.0 6.4 0.00 0.03 0.03 66 1017.0
20220812153102 28 199 1.6 11.3 0.00 0.03 0.03 68 1017.0
20220812152600 29 199 1.6 11.3 0.00 0.03 0.03 65 1017.0
20220812152441 30 199 0.0 3.2 0.00 0.03 0.03 65 1017.1
20220812152059 30 200 0.0 3.2 0.00 0.03 0.03 67 1017.0
20220812151831 30 200 0.0 3.2 0.00 0.03 0.03 66 1017.0
20220812150559 29 200 0.0 3.2 0.00 0.03 0.03 68 1017.2
20220812150059 28 199 0.0 8.0 0.00 0.03 0.03 70 1017.0
20220812145605 28 199 1.6 8.0 0.00 0.03 0.03 73 1016.9
20220812145600 28 199 1.6 8.0 0.00 0.03 0.03 69 1017.0